Regional Weather Roundup
Issued by NWS Upton, NY

Current Version | Previous Version | Text Only | Print | Product List | Glossary Off
Versions: 1 2 3 4 5 6 7 8 9 10 11 12 13 14 15 16 17 18 19 20 21 22 23 24 25 26 27 28 29 30 31 32 33 34 35 36 37 38 39 40 41 42 43 44 45 46 47 48 49 50
000 ASUS41 KOKX 061918 RWROKX REGIONAL WEATHER ROUNDUP NATIONAL WEATHER SERVICE NEW YORK NY 300 PM EDT MON JUL 06 2015 NOTE: "FAIR" INDICATES FEW OR NO CLOUDS BELOW 12,000 FEET WITH NO SIGNIFICANT WEATHER AND/OR OBSTRUCTIONS TO VISIBILITY. NYZ071-072-176-178-NJZ106-104-062000- NEW YORK CITY METRO AREA CITY SKY/WX TMP DP RH WIND PRES REMARKS CENTRAL PARK PTSUNNY 82 66 58 S6 30.17F LAGUARDIA APRT PTSUNNY 81 65 58 S10 30.14F KENNEDY INTL PTSUNNY 81 64 56 SE10 30.16F NEWARK/LIBERTY CLOUDY 82 67 60 SE9G16 30.13F BRNX BOT. GARD N/A 82 64 54 S6 30.15F TETERBORO PTSUNNY 83 62 49 SW9 30.12F $$ NYZ177-179-078>081-062000- LONG ISLAND NEW YORK CITY SKY/WX TMP DP RH WIND PRES REMARKS FARMINGDALE PTSUNNY 79 66 64 S9 30.16F ISLIP CLOUDY 77 65 66 S7 30.15F SHIRLEY CLOUDY 78 66 66 S8 30.17F WESTHAMPTON CLOUDY 78 65 63 S7 30.18F MONTAUK POINT N/A 78 68 71 S5 30.19F $$ NYZ052-065-067-062000- HUDSON VALLEY CITY SKY/WX TMP DP RH WIND PRES REMARKS WHITE PLAINS CLOUDY 79 63 57 S7 30.15F NEWBURGH CLOUDY 79 68 69 CALM 30.15F MONTGOMERY PTSUNNY 81 68 64 SW7 30.13F POUGHKEEPSIE PTSUNNY 83 66 56 S3 30.12F ALBANY MOSUNNY 84 59 42 S3 30.13F $$ NJZ001-105-106-008-010-013-015-019>022-104-062000- NEW JERSEY CITY SKY/WX TMP DP RH WIND PRES REMARKS NEWARK/LIBERTY CLOUDY 82 67 60 SE9G16 30.13F TETERBORO PTSUNNY 83 62 49 SW9 30.12F CALDWELL PTSUNNY 82 65 56 S6 30.13F MORRISTOWN PTSUNNY 84 70 61 SE6 30.13F SOMERVILLE PTSUNNY 84 66 54 CALM 30.10F SUSSEX PTSUNNY 81 66 60 S3 30.13F ANDOVER N/A 81 67 62 CALM 30.14F TRENTON PTSUNNY 82 70 66 S10 30.11F MILLVILLE PTSUNNY 84 71 65 SE6 30.10F ATLANTIC CITY PTSUNNY 83 72 69 SE9 30.12F WRIGHTSTOWN PTSUNNY 83 73 70 VRB5 30.09F TOMS RIVER PTSUNNY 82 72 69 SE10 30.13S BELMAR PTSUNNY 79 68 69 SE9 30.14S $$ PAZ047>061-062-071-062000- EASTERN PENNSYLVANIA CITY SKY/WX TMP DP RH WIND PRES REMARKS PHILADELPHIA PTSUNNY 85 70 60 S8 30.10F ALLENTOWN CLOUDY 83 68 60 SE6 30.11F SCRANTON PTSUNNY 85 65 51 VRB3 30.12F $$ CTZ002-004>006-009-010-012-RIZ004-006-007-MAZ004-011-015-062000- SOUTHERN NEW ENGLAND IN CT CITY SKY/WX TMP DP RH WIND PRES REMARKS BRADLEY INTL PTSUNNY 84 62 47 W5 30.14F HARTFORD PTSUNNY 84 62 47 S5 30.14F DANBURY PTSUNNY 79 64 60 S7 30.17F WTRBRY/OXFORD PTSUNNY 79 66 65 S8 30.20S BRIDGEPORT PTSUNNY 77 70 79 SE8 30.15F MERIDEN PTSUNNY 83 65 54 S6 30.15F NEW HAVEN CLOUDY 78 68 71 SE5 30.16F CHESTER MOCLDY 81 66 61 S5 30.18S GROTON PTSUNNY 79 70 74 S7 30.16F WILLIMANTIC PTSUNNY 82 63 52 SW8 30.16F IN RI CITY SKY/WX TMP DP RH WIND PRES REMARKS PROVIDENCE PTSUNNY 82 66 58 S15 30.15F BLOCK ISLAND PTSUNNY 79 64 61 SW9 30.19F WESTERLY PTSUNNY 79 66 64 S8 30.18F IN MA CITY SKY/WX TMP DP RH WIND PRES REMARKS BOSTON PTSUNNY 76 63 64 E12 30.14F WORCESTER MOSUNNY 82 55 39 SW9 30.18F WESTFIELD MOSUNNY 83 63 50 S8 30.14F PROVINCETOWN SUNNY 91 27 9 SW5 30.16F NANTUCKET SUNNY 74 67 78 SW16 30.18S $$ ANZ330-335-338-340-345-350-353-355-062000- COASTAL MARINE OBSERVATIONS STATION/POSITION TIME SKY/WX TEMP WIND PRES VSBY WAVE AIR SEA DIR/SP/G HT/PER (UTC) (F) (DEG/KT/KT) (MB) (MI) (FT/S) NY HARB ENTRANCE 1850 72 72 110/ 8/ 10 1020.8 2/ 6 4S FIRE IS 1803 71 N/A 2/ 6 20S FIRE ISLAND 1850 72 72 110/ 6/ 6 1021.0 2/ 6 GREAT SOUTH BAY 1800 73 77 200/ 6/ 8 N/A 23SW MTP 1850 72 71 180/ 6/ 6 1021.5 2/ 8 HUDSON CANYON NOT AVBL KINGS POINT 1800 79 68 190/ 7/ 9 1020.5 CENTRAL LI SOUND NOT AVBL EASTERN LI SOUND 1800 68 65 140/ 4/ 6 N/A ROBBINS REEF 1800 76 160/ 11/ 13 1019.8 $$ >>>>>>>>>>>>>>>>>>>>>>>>>>>> KEY <<<<<<<<<<<<<<<<<<<<<<<<<<< > < > SKY/WX - SKY CONDITION/PRESENT WEATHER < > TMP - TEMPERATURE IN FAHRENHEIT < > DP - DEWPOINT IN FAHRENHEIT < > RH - RELATIVE HUMIDITY IN PERCENT < > WIND - DIRECTION AND SPEED IN MPH < > PRES - MEAN SEA LEVEL PRESSURE IN INCHES OF HG < > WCI - WIND CHILL INDEX < > VSB - VISIBILITY IN MILES < > HX - HEAT INDEX < > TC - TEMPERATURE IN CELSIUS < > VRB - VARIABLE WIND DIRECTION < > < >>>>>>>>>>>>>>>>>>>>>>>>>>>> KEY <<<<<<<<<<<<<<<<<<<<<<<<<<<

USA.gov is the U.S. government's official web portal to all federal, state and local government web resources and services.